Dewpoint
69 69 69 68 67 68 67 66 65 65 64 64 64 65 65 64 63 64 65 64 65 67 67 66 65 64 63 62 61 61 60 61 61 60 59 59 59 60 61 61 61 61 61
70 70 69 67 67 67 67 66 65 64 63 63 62 63 64 64 63 63 63 64 64 65 65 65 64 63 62 61 59 59 59 60 58 59 59 60 60 60 60 61 61 62 62
67 67 67 66 67 68 67 66 64 64 63 63 62 63 63 63 62 62 62 63 64 63 63 64 64 62 61 59 58 58 58 57 58 59 60 60 59 59 60 60 61 61 61
67 66 66 66 66 66 67 66 65 63 63 62 62 63 64 63 62 62 62 63 63 62 62 62 62 62 61 59 58 57 57 57 59 58 59 59 58 58 59 60 61 60 60
62 64 66 66 66 66 66 66 65 63 62 62 62 63 63 63 62 62 61 61 61 60 59 61 60 60 60 61 58 58 57 59 58 58 58 58 57 58 59 59 59 59 59
59 59 62 65 65 65 66 66 64 63 62 61 62 62 62 63 61 61 61 61 59 58 57 58 59 58 59 60 60 58 58 59 58 58 57 57 57 58 59 58 58 58 58
55 56 59 59 64 65 65 65 64 63 62 62 61 59 53 56 59 60 61 60 59 57 57 58 57 58 58 59 60 59 59 59 58 58 57 57 57 58 59 58 57 58 57
55 55 55 56 58 61 64 65 64 62 62 62 59 57 51 52 52 59 59 59 59 57 56 57 57 57 57 57 57 59 59 59 58 57 58 57 57 57 58 56 56 56 56
54 55 54 54 55 57 57 59 62 62 60 61 61 55 48 52 51 51 57 59 59 58 57 56 56 56 56 55 57 57 56 56 57 57 58 57 56 56 56 55 55 55 55
48 50 55 54 53 53 55 57 58 58 61 59 59 59 55 52 51 47 47 52 59 57 57 56 56 55 55 55 56 55 54 53 55 57 57 57 56 56 56 54 54 54 53
46 48 51 54 53 52 52 54 55 55 57 58 57 55 54 51 53 51 49 47 46 51 57 56 55 55 55 55 55 54 53 52 53 56 57 57 56 56 55 54 52 51 52
44 47 50 52 53 52 52 52 55 55 55 55 55 57 55 52 51 51 50 50 52 45 49 56 55 55 55 54 54 53 52 51 52 54 56 56 56 56 55 54 51 50 51
43 46 47 49 51 52 53 53 52 53 53 53 52 52 54 55 54 54 53 52 50 41 44 45 55 55 54 54 54 53 52 50 51 53 54 54 55 55 55 53 52 52 52
43 44 47 48 49 50 52 52 52 52 53 53 53 52 52 55 55 54 53 50 49 40 40 44 45 55 54 54 53 52 52 49 50 51 52 52 53 53 53 52 52 53 52
43 47 47 47 47 47 49 48 49 51 51 52 52 53 53 54 54 54 54 53 50 44 42 42 43 46 54 53 53 53 52 49 49 49 49 50 51 52 52 52 52 51 51
48 45 45 45 46 46 46 46 48 47 49 50 52 52 53 53 52 53 53 53 53 48 46 42 42 46 53 53 52 53 52 49 48 47 47 48 49 50 50 50 50 50 51
43 42 42 41 42 43 44 44 43 44 45 47 49 50 49 50 51 51 50 50 51 50 48 39 41 43 52 52 51 52 51 50 48 47 47 47 47 48 48 48 48 49 49
40 41 42 41 41 41 42 42 42 42 43 45 46 47 48 50 50 51 51 49 48 48 44 39 40 42 48 51 51 50 49 50 49 47 46 46 46 46 46 46 46 46 46
40 40 40 40 40 41 41 42 42 41 41 41 42 43 44 46 49 51 51 50 49 48 44 42 38 42 44 50 49 49 48 48 48 47 46 45 45 45 45 45 44 44 44
40 39 38 38 38 38 38 37 37 37 37 38 39 40 42 45 45 49 49 49 48 48 45 43 42 42 44 46 47 45 44 46 45 47 46 45 44 44 44 43 43 43 42
38 38 37 38 37 37 35 36 35 35 35 35 36 38 40 41 44 44 48 47 46 43 42 42 41 41 40 41 43 44 42 43 44 44 43 43 43 43 42 42 41 41 40
35 37 37 36 35 33 36 37 36 35 34 34 34 36 38 40 41 41 42 42 46 44 42 41 41 40 40 41 41 43 41 39 36 42 41 39 41 40 40 40 39 38 38
36 37 37 36 35 35 35 37 36 35 35 34 34 35 35 36 38 41 40 40 40 41 40 43 40 41 41 42 42 41 39 39 37 39 39 35 38 36 37 37 38 37 37
34 35 36 37 35 35 36 36 35 35 33 33 34 35 35 35 36 37 38 41 43 44 41 43 42 42 42 43 42 41 40 40 37 39 38 32 36 34 35 37 37 37 37
34 34 34 34 34 35 36 36 35 35 33 33 33 33 34 34 34 35 36 37 39 41 41 40 41 41 41 41 41 40 39 34 32 33 38 33 32 32 33 35 36 36 35
34 33 33 34 34 34 35 36 36 36 34 32 32 32 32 33 34 34 34 34 35 38 38 39 38 39 40 41 39 39 37 33 32 31 32 31 31 30 25 32 34 34 34
Lifted_Index
-5 -5 -5 -4 -4 -4 -3 -2 -2 -1 -1 -0 -1 -1 -1 -1 -1 -1 -1 -1 -2 -2 -2 -1 -0 -0 1 2 3 3 4 3 4 4 4 4 4 4 4 3 3 3 2
-5 -5 -4 -4 -4 -4 -4 -3 -3 -2 -1 -0 -0 -1 -1 -1 -1 -1 -1 -1 -1 -2 -1 -1 -0 0 1 2 3 4 4 4 4 4 4 4 4 4 4 4 3 3 2
-4 -4 -4 -4 -4 -4 -4 -4 -3 -3 -2 -1 -0 -1 -1 -1 -1 -1 -1 -1 -1 -0 0 0 1 1 2 3 4 4 5 5 5 4 4 4 4 4 4 4 4 3 3
-3 -3 -3 -3 -3 -3 -3 -3 -3 -3 -3 -2 -1 -1 -1 -1 -1 -1 -0 -0 0 1 1 2 2 2 3 3 4 5 5 5 5 5 4 5 5 5 5 4 4 4 4
-2 -2 -2 -2 -2 -3 -3 -3 -3 -3 -3 -2 -2 -1 -1 -1 -1 -1 -0 -0 1 1 2 2 3 3 3 3 4 4 5 5 5 5 5 5 5 5 5 5 5 5 5
2 1 1 -0 -1 -2 -2 -2 -3 -3 -2 -2 -2 -2 -2 -1 -1 -1 -0 -0 0 1 2 2 3 3 4 4 4 4 4 4 5 5 5 5 5 5 5 5 5 6 6
6 5 4 3 1 -0 -1 -2 -3 -2 -2 -2 -2 -2 -2 -1 -1 -1 -1 -0 0 1 1 2 3 4 4 4 4 4 4 4 5 5 5 5 5 5 5 6 6 6 6
7 7 6 5 4 2 0 -1 -2 -2 -2 -2 -2 -2 -1 -1 -1 -1 -1 -0 0 1 1 2 2 3 4 5 5 4 4 4 5 5 5 5 5 6 6 6 7 7 7
9 8 7 6 5 4 2 1 -1 -1 -2 -2 -1 -1 -1 -0 -0 -0 -0 0 1 1 2 2 2 3 4 5 5 5 5 5 5 5 5 5 5 6 6 7 7 8 8
10 9 7 6 6 6 5 4 3 2 0 -0 -0 -0 -0 0 1 1 1 2 2 2 2 2 2 3 4 5 6 6 5 5 5 5 5 5 5 6 6 7 8 8 9
11 10 8 7 6 6 7 7 6 5 4 2 1 1 1 1 2 2 2 3 3 2 2 2 2 3 4 5 6 6 6 6 6 5 5 5 5 6 6 7 8 9 9
13 12 10 9 8 7 6 6 6 6 6 5 4 3 2 2 2 2 2 3 3 3 3 2 2 3 3 4 5 6 6 6 6 6 5 5 6 6 6 7 8 9 10
14 13 11 9 8 7 5 4 4 4 5 6 5 5 4 3 2 2 2 3 3 3 3 3 3 3 3 4 5 5 6 6 6 6 6 6 6 7 7 7 8 9 9
13 12 10 8 7 5 4 3 3 3 4 5 5 5 5 4 2 2 2 2 2 3 3 3 3 3 3 3 4 5 6 6 7 7 7 8 8 8 8 8 8 8 9
8 7 6 5 4 3 3 3 3 3 3 3 4 5 5 4 3 2 2 2 2 2 3 3 3 3 3 3 3 4 6 6 7 8 8 9 9 9 9 8 8 8 9
4 4 4 3 3 2 2 3 3 3 3 3 3 4 4 4 4 3 3 3 2 2 2 3 3 3 3 3 3 4 5 6 7 8 8 9 10 9 9 9 9 9 9
4 4 4 4 4 3 3 3 4 4 3 3 3 3 4 4 4 4 4 4 4 3 3 3 3 3 3 3 3 3 5 6 7 8 8 10 10 10 10 10 10 10 10
5 5 5 4 4 4 3 4 4 4 4 3 3 3 3 4 4 4 4 4 4 4 4 4 4 4 4 4 3 3 4 5 7 8 8 10 10 10 9 10 10 11 11
5 5 5 4 4 4 4 4 4 4 4 4 4 4 4 4 4 3 3 4 4 4 4 4 5 5 5 5 4 4 4 5 6 8 8 9 10 10 9 10 11 11 12
4 5 5 5 5 4 4 4 4 4 5 5 5 6 5 5 4 4 3 3 3 4 4 5 5 6 6 6 5 4 4 5 6 8 9 10 10 10 10 10 11 12 12
5 5 5 5 5 5 5 5 5 5 5 5 6 6 6 6 5 4 3 3 3 4 4 5 5 6 6 6 6 5 5 5 6 8 9 10 11 10 10 10 11 12 12
6 6 6 6 6 6 6 6 5 5 5 5 5 6 7 7 6 5 4 4 4 4 4 5 5 6 6 7 7 6 5 5 6 8 10 10 11 11 10 11 11 12 12
7 7 7 7 7 7 6 6 6 6 6 6 6 6 6 7 7 7 6 5 4 4 3 4 5 5 6 7 7 7 6 6 7 9 9 10 10 10 10 11 11 12 12
8 8 8 8 7 7 7 7 6 7 7 7 7 7 7 7 7 7 6 5 4 4 3 3 4 4 5 6 7 7 7 6 7 9 10 9 10 11 11 11 12 12 13
8 8 8 8 7 7 7 7 7 7 7 7 7 7 7 7 7 7 6 5 5 4 3 3 3 4 4 5 6 7 7 7 7 9 10 10 10 11 11 12 13 13 14
8 8 8 7 7 7 7 7 7 7 7 7 7 7 8 8 7 7 6 6 5 4 3 3 3 3 4 5 6 6 7 6 7 9 11 11 11 11 12 13 14 14 14